Regional Weather Roundup
Issued by NWS

Home | Current Version | Previous Version | Text Only | Print | Product List | Glossary On
Versions: 1 2 3 4 5 6 7 8 9 10 11 12 13 14 15 16 17 18 19 20 21 22 23 24 25 26 27 28 29 30 31 32 33 34 35 36 37 38 39 40 41 42 43 44 45 46 47 48 49 50
000
ASUS43 KLSX 312157
RWRMO

WEATHER SUMMARY FOR MISSOURI
NATIONAL WEATHER SERVICE SPRINGFIELD MO
500 PM CDT TUE MAY 31 2016

NOTE: "FAIR" INDICATES FEW OR NO CLOUDS BELOW 12,000 FEET WITH NO
       SIGNIFICANT WEATHER AND/OR OBSTRUCTIONS TO VISIBILITY.
       CURRENT SKY AND/OR WEATHER CONDITIONS ARE NOT AVAILABLE FOR
       CHILLICOTHE AND FARMINGTON.

MOZ001>031-035>038-043-044-053-054-312300-
...NORTHERN AND WESTERN MISSOURI...

CITY           SKY/WX    TMP DP  RH WIND       PRES   REMARKS
KANSAS CTY INT CLOUDY    76  64  66 VRB3      29.90S
LEE`S SUMMIT   CLOUDY    77  63  61 NW3       29.89F
ST JOSEPH      CLOUDY    77  63  61 SW8       29.89F
CHILLICOTHE      N/A     78  66  66 S6        29.89F

$$
MOZ066>068-077>081-088>096-101>105-312300-
...SOUTHWEST MISSOURI...

CITY           SKY/WX    TMP DP  RH WIND       PRES   REMARKS
SPRINGFIELD    CLOUDY    80  64  58 SW10      29.89S
JOPLIN         TSTM      70  66  87 SE13      29.89R
BRANSON        PTSUNNY   77  66  69 S6        29.92S

$$
MOZ032>034-039>042-045>050-055>058-069>072-312300-
...CENTRAL MISSOURI...

CITY           SKY/WX    TMP DP  RH WIND       PRES   REMARKS
COLUMBIA       NOT AVBL
JEFFERSON CITY MOSUNNY   81  63  54 S7        29.86F
ROLLA          MOSUNNY   79  64  60 SE9       29.88F
SEDALIA        CLOUDY    80  67  64 S5        29.90F
WARRENSBURG    CLOUDY    77  63  61 CALM      29.89F

$$
MOZ051-052-059>065-312300-
...EAST CENTRAL MISSOURI...

CITY           SKY/WX    TMP DP  RH WIND       PRES   REMARKS
ST LOUIS INTL  CLOUDY    85  61  44 S9        29.90F

$$
MOZ072>076-082>087-097>100-106>115-312300-
...SOUTH CENTRAL AND SOUTHEAST MISSOURI...

CITY           SKY/WX    TMP DP  RH WIND       PRES   REMARKS
CAPE GIRARDEAU SUNNY     84  62  47 SW7       29.88F
POPLAR BLUFF   MOSUNNY   82  65  56 SW3       29.87F
WEST PLAINS    CLOUDY    78  64  61 SE6       29.90F

$$


USA.gov is the U.S. government's official web portal to all federal, state and local government web resources and services.